TimeAKDT,TemperatureF,Dew PointF,Humidity,Sea Level PressureIn,VisibilityMPH,Wind Direction,Wind SpeedMPH,Gust SpeedMPH,PrecipitationIn,Events,Conditions,WindDirDegrees,DateUTC
12:16 AM,44.6,37.4,76,29.39,10.0,NNE,3.5,-,N/A,,Overcast,20,2013-06-30 08:16:00
12:36 AM,46.4,37.4,71,29.37,10.0,SE,12.7,23.0,N/A,,Overcast,140,2013-06-30 08:36:00
12:56 AM,46.4,37.4,71,29.36,10.0,North,12.7,27.6,N/A,,Mostly Cloudy,10,2013-06-30 08:56:00
1:16 AM,46.4,37.4,71,29.36,10.0,West,19.6,24.2,N/A,,Mostly Cloudy,270,2013-06-30 09:16:00
1:36 AM,48.2,39.2,71,29.38,10.0,SE,10.4,39.1,N/A,,Overcast,130,2013-06-30 09:36:00
1:56 AM,46.4,37.4,71,29.37,10.0,ENE,8.1,17.3,N/A,,Overcast,60,2013-06-30 09:56:00
2:16 AM,44.6,37.4,76,29.38,10.0,SW,4.6,-,N/A,,Overcast,220,2013-06-30 10:16:00
2:36 AM,44.6,37.4,76,29.37,10.0,NNE,9.2,18.4,N/A,,Overcast,30,2013-06-30 10:36:00
2:56 AM,42.8,35.6,76,29.36,10.0,South,29.9,36.8,N/A,,Mostly Cloudy,170,2013-06-30 10:56:00
3:16 AM,42.8,37.4,81,29.37,10.0,South,26.5,34.5,N/A,,Overcast,180,2013-06-30 11:16:00
3:36 AM,42.8,37.4,81,29.38,10.0,ESE,12.7,26.5,N/A,,Overcast,120,2013-06-30 11:36:00
3:56 AM,42.8,37.4,81,29.38,10.0,ESE,4.6,-,N/A,,Overcast,110,2013-06-30 11:56:00
4:16 AM,42.8,37.4,81,29.38,10.0,SSE,9.2,16.1,N/A,,Overcast,150,2013-06-30 12:16:00
4:36 AM,42.8,37.4,81,29.37,10.0,ESE,9.2,-,N/A,,Overcast,120,2013-06-30 12:36:00
4:56 AM,42.8,37.4,81,29.36,10.0,South,19.6,-,N/A,,Overcast,170,2013-06-30 12:56:00
5:16 AM,42.8,37.4,81,29.36,10.0,South,19.6,25.3,N/A,,Overcast,170,2013-06-30 13:16:00
5:36 AM,42.8,37.4,81,29.36,10.0,SSE,10.4,-,N/A,,Mostly Cloudy,150,2013-06-30 13:36:00
5:56 AM,42.8,37.4,81,29.35,9.0,ENE,10.4,16.1,N/A,,Mostly Cloudy,60,2013-06-30 13:56:00
6:16 AM,42.8,37.4,81,29.35,10.0,ENE,5.8,-,N/A,,Overcast,70,2013-06-30 14:16:00
6:36 AM,42.8,37.4,81,29.35,10.0,North,4.6,-,N/A,,Overcast,10,2013-06-30 14:36:00
6:56 AM,42.8,37.4,81,29.36,10.0,NW,3.5,-,N/A,,Overcast,310,2013-06-30 14:56:00
7:16 AM,42.8,39.2,87,29.35,10.0,South,10.4,-,N/A,,Mostly Cloudy,180,2013-06-30 15:16:00
7:36 AM,42.8,37.4,81,29.33,10.0,South,32.2,39.1,N/A,,Partly Cloudy,180,2013-06-30 15:36:00
7:56 AM,42.8,37.4,81,29.34,10.0,South,29.9,40.3,N/A,,Partly Cloudy,180,2013-06-30 15:56:00
8:16 AM,42.8,37.4,81,29.33,10.0,South,33.4,42.6,N/A,,Mostly Cloudy,180,2013-06-30 16:16:00
8:36 AM,42.8,39.2,87,29.33,10.0,South,32.2,39.1,N/A,,Mostly Cloudy,180,2013-06-30 16:36:00
8:56 AM,42.8,39.2,87,29.32,10.0,South,33.4,44.9,N/A,,Mostly Cloudy,190,2013-06-30 16:56:00
9:16 AM,42.8,39.2,87,29.33,10.0,South,29.9,39.1,N/A,,Mostly Cloudy,180,2013-06-30 17:16:00
9:36 AM,44.6,39.2,81,29.34,10.0,South,21.9,32.2,N/A,,Overcast,170,2013-06-30 17:36:00
9:56 AM,44.6,39.2,81,29.35,10.0,SE,13.8,24.2,N/A,,Overcast,140,2013-06-30 17:56:00
10:16 AM,44.6,39.2,81,29.35,10.0,ESE,18.4,24.2,N/A,,Overcast,120,2013-06-30 18:16:00
10:36 AM,44.6,39.2,81,29.34,10.0,ENE,18.4,23.0,N/A,,Overcast,60,2013-06-30 18:36:00
10:56 AM,42.8,39.2,87,29.35,10.0,East,9.2,20.7,N/A,,Overcast,100,2013-06-30 18:56:00
11:16 AM,44.6,39.2,81,29.34,8.0,SE,10.4,18.4,N/A,,Overcast,130,2013-06-30 19:16:00
11:36 AM,44.6,39.2,81,29.33,10.0,ENE,10.4,-,N/A,,Overcast,70,2013-06-30 19:36:00
11:56 AM,42.8,39.2,87,29.33,10.0,ESE,11.5,16.1,N/A,,Overcast,120,2013-06-30 19:56:00
12:16 PM,46.4,41.0,81,29.33,10.0,SE,9.2,16.1,N/A,,Overcast,130,2013-06-30 20:16:00
12:36 PM,44.6,41.0,87,29.32,10.0,SE,18.4,24.2,N/A,,Overcast,130,2013-06-30 20:36:00
12:56 PM,46.4,42.8,87,29.31,10.0,ESE,18.4,23.0,N/A,,Mostly Cloudy,120,2013-06-30 20:56:00
1:16 PM,46.4,42.8,87,29.30,10.0,ESE,20.7,-,N/A,,Overcast,120,2013-06-30 21:16:00
1:36 PM,48.2,42.8,82,29.30,10.0,ESE,20.7,-,N/A,,Overcast,110,2013-06-30 21:36:00
1:56 PM,46.4,42.8,87,29.30,10.0,ESE,20.7,-,N/A,,Overcast,120,2013-06-30 21:56:00
2:16 PM,46.4,42.8,87,29.28,10.0,East,23.0,27.6,N/A,,Overcast,90,2013-06-30 22:16:00
2:36 PM,46.4,42.8,87,29.28,10.0,ESE,28.8,33.4,N/A,,Mostly Cloudy,120,2013-06-30 22:36:00
2:56 PM,46.4,42.8,87,29.28,10.0,East,21.9,29.9,N/A,,Overcast,100,2013-06-30 22:56:00
3:16 PM,46.4,42.8,87,29.27,10.0,ESE,21.9,28.8,N/A,,Overcast,110,2013-06-30 23:16:00
3:36 PM,48.2,44.6,87,29.27,10.0,ESE,23.0,27.6,N/A,,Overcast,120,2013-06-30 23:36:00
3:56 PM,48.2,42.8,82,29.26,10.0,ESE,20.7,28.8,N/A,,Overcast,120,2013-06-30 23:56:00
4:16 PM,48.2,42.8,82,29.25,10.0,SE,23.0,29.9,N/A,,Mostly Cloudy,130,2013-07-01 00:16:00
4:36 PM,48.2,42.8,82,29.25,10.0,SE,19.6,26.5,N/A,,Mostly Cloudy,130,2013-07-01 00:36:00
4:56 PM,48.2,42.8,82,29.25,10.0,SE,20.7,-,N/A,,Mostly Cloudy,130,2013-07-01 00:56:00
5:16 PM,48.2,42.8,82,29.25,10.0,SE,20.7,27.6,N/A,,Overcast,130,2013-07-01 01:16:00
5:36 PM,48.2,42.8,82,29.24,10.0,ESE,16.1,26.5,N/A,,Overcast,120,2013-07-01 01:36:00
5:56 PM,50.0,42.8,76,29.24,10.0,SE,17.3,24.2,N/A,,Overcast,130,2013-07-01 01:56:00
6:16 PM,48.2,42.8,82,29.24,10.0,SE,17.3,-,N/A,,Overcast,130,2013-07-01 02:16:00
6:36 PM,48.2,41.0,76,29.25,10.0,SE,15.0,21.9,N/A,,Overcast,140,2013-07-01 02:36:00
6:56 PM,46.4,41.0,81,29.24,10.0,SE,13.8,-,N/A,,Overcast,140,2013-07-01 02:56:00
7:16 PM,46.4,41.0,81,28.53,10.0,SE,16.1,-,N/A,,Mostly Cloudy,130,2013-07-01 03:16:00
7:36 PM,46.4,41.0,81,29.25,10.0,SE,15.0,-,N/A,,Overcast,130,2013-07-01 03:36:00
7:56 PM,46.4,41.0,81,29.25,10.0,SE,17.3,-,N/A,,Overcast,130,2013-07-01 03:56:00
8:16 PM,44.6,41.0,87,29.26,10.0,SE,16.1,-,N/A,,Overcast,140,2013-07-01 04:16:00
8:36 PM,44.6,39.2,81,29.25,10.0,SE,13.8,-,N/A,,Overcast,130,2013-07-01 04:36:00
8:56 PM,44.6,39.2,81,29.26,10.0,SE,16.1,-,N/A,,Overcast,140,2013-07-01 04:56:00
9:16 PM,44.6,39.2,81,29.25,10.0,SE,15.0,-,N/A,,Overcast,130,2013-07-01 05:16:00
9:36 PM,44.6,39.2,81,29.26,10.0,SE,13.8,20.7,N/A,,Overcast,130,2013-07-01 05:36:00
9:56 PM,44.6,39.2,81,29.26,10.0,SE,18.4,21.9,N/A,,Overcast,130,2013-07-01 05:56:00
10:16 PM,44.6,39.2,81,29.26,10.0,ESE,12.7,-,N/A,,Overcast,120,2013-07-01 06:16:00
10:36 PM,42.8,39.2,87,29.26,10.0,ESE,11.5,-,N/A,,Overcast,110,2013-07-01 06:36:00
10:56 PM,42.8,39.2,87,29.26,10.0,ESE,15.0,-,N/A,,Overcast,120,2013-07-01 06:56:00
11:16 PM,42.8,39.2,87,29.26,10.0,ESE,13.8,-,N/A,,Overcast,120,2013-07-01 07:16:00
11:36 PM,42.8,39.2,87,29.26,10.0,ESE,13.8,-,N/A,,Overcast,120,2013-07-01 07:36:00
11:56 PM,42.8,39.2,87,29.27,10.0,ESE,16.1,-,N/A,,Overcast,120,2013-07-01 07:56:00